星链-30890 (STARLINK-30890 )

导读 | 星芒AI

STARLINK-30890 是 SpaceX Starlink 卫星互联网项目中的第 30890 颗卫星,属于低轨卫星群的一部分,旨在为全球用户提供高速互联网服务。该卫星采用可重复使用设计,配备先进通信设备和星间激光链路,以提升网络效率与覆盖范围。其发射进一步扩展了 Starlink 网络的容量与稳定性,支持偏远地区联网,并在紧急通信和军事应用中发挥潜力。

基本信息
目录编号:
58362
目录名称:
STARLINK-30890
国际标识:
2023-177M
轨道中心:
EARTH
卫星名称:
星链-30890
卫星全名:
星链-30890 (STARLINK-30890 )
卫星状态:
在轨 (已飞行713 天)
发射日期:
2023-11-18 UTC
国别 :
美国 (US)
星等 :
--
轨道信息
数据来源 国际轨道数据 AOE轨道数据
星历时间 2025-10-30T20:40:11+0800
1天前
查看轨道信息
2025-10-26T07:00:00+0800
5天前
查看轨道信息
半长轴 6937.264km 6937.183km
偏心率 0.0001399 0.0001119
轨道倾角 43.005° 43.004°
近地点辐角 247.240° 279.394°
升交点赤经 339.060° 3.894°
平近点角 112.829° 174.923°
近地点 558.158km 558.271km
远地点 560.1km 559.825km
周期 95.839分钟 95.837分钟
每日圈数 15.025209 15.025472
详细信息
固有亮度:
5
最大亮度:
0.3
卫星平台:
Starlink v2.0 mini
覆盖范围:
全球
运营商:
太空探索技术公司
运营商所在国:
美国
制造商(研发单位):
太空探索技术公司
制造商所在国:
美国
使用方式:
暂无
卫星简介
星链(Starlink)计划是由太空探索技术公司(SpaceX)提出的一个巨型低轨卫星互联网星座项目,计划在2019年至2024年间在太空搭建由约1.2万颗卫星组成的“星链”网络,其中1584颗将部署在地球上空550千米处的近地轨道,并从2020年开始工作。该卫星仍在工作。
2D轨道图
3D轨道图
轨道高度分析图
轨道倾角分析图
轨道综合分析图
查看轨道综合分析图